Content
SEND FEEDBACK

Daily
Averages
Monthly
Summary
United States of America

BURLINGTON JUNCTION, MISSOURI


Home > North America > United States > Missouri
Elevation: 960 feet     Latitude: 40 26N     Longitude: 095 04W

WEATHER
 
SELECT A DAY
Number of Records: 410,484;   Date Range: 4/23/95 - 7/26/14
 
SHARE

PRINT THIS DATA

[ ← Previous Day ]
WEATHER ALMANAC - JANUARY 7, 2013
[ Next Day → ]
[ °C ]   °F
Weather ElementAverageHighLow
Temperature31.8 °F48.2 °F (2:35 pm)21.2 °F (5:15 am)
Dewpoint20.8 °F26.6 °F (4:15 pm)15.8 °F (3:55 am)
Humidity66.4 %93 % (11:15 pm)37 % (12:35 pm)
Barometer30.06 in30.18 in (12:35 am)29.98 in (11:15 pm)
Wind Speed7.5 mph19.6 mph (12:35 pm)
Wind Gust25.3 mph (12:35 pm)
Weather ElementAverage
Visibility10 mi
Wind DirectionSE (135.3 °)

Weather ElementTotal
Precipitation---
Heating Degree Days30.3 (Base 65)
Averaged from 66 records on January 7, 2013
WEATHER CONDITIONS BREAKOUT
WIND DIRECTION BREAKOUT
WEATHER BY HOUR - JANUARY 7, 2013
[ °C ]   °F
Local TimeTemperatureDewpointHumidityBarometerVisibilityWind DirectionWind SpeedGust SpeedPrecipitationEventsConditions
12:35 AM26.6 °F17.6 °F69 %30.18 in10.0 miSouth (190°)8.1 mphClear
12:55 AM26.6 °F17.6 °F69 %30.18 in10.0 miSouth (190°)8.1 mphClear
1:15 AM24.8 °F17.6 °F74 %30.18 in10.0 miSouth (180°)6.9 mphClear
1:35 AM24.8 °F17.6 °F74 %30.18 in10.0 miSSW (200°)8.1 mphClear
1:55 AM24.8 °F17.6 °F74 %30.17 in10.0 miSouth (190°)5.8 mphClear
2:35 AM24.8 °F17.6 °F74 %30.17 in10.0 miSouth (180°)6.9 mphClear
2:55 AM24.8 °F17.6 °F74 %30.17 in10.0 miSouth (180°)9.2 mphClear
3:15 AM24.8 °F17.6 °F74 %30.16 in10.0 miSouth (190°)8.1 mphClear
3:35 AM24.8 °F17.6 °F74 %30.15 in10.0 miSSW (200°)6.9 mphClear
3:55 AM23.0 °F15.8 °F74 %30.15 in10.0 miSouth (190°)6.9 mphClear
4:15 AM23.0 °F17.6 °F80 %30.15 in10.0 miSouth (190°)8.1 mphClear
4:35 AM23.0 °F17.6 °F80 %30.14 in10.0 miSouth (180°)8.1 mphClear
4:55 AM23.0 °F15.8 °F74 %30.14 in10.0 miSouth (190°)8.1 mphClear
5:15 AM21.2 °F15.8 °F80 %30.13 in10.0 miSouth (190°)6.9 mphClear
5:35 AM21.2 °F15.8 °F80 %30.12 in10.0 miSouth (180°)8.1 mphClear
5:55 AM23.0 °F17.6 °F80 %30.12 in10.0 miSouth (180°)8.1 mphClear
6:15 AM24.8 °F17.6 °F74 %30.11 in10.0 miSouth (170°)9.2 mphClear
6:35 AM24.8 °F17.6 °F74 %30.10 in10.0 miSouth (180°)9.2 mphClear
6:55 AM24.8 °F17.6 °F74 %30.10 in10.0 miSouth (170°)9.2 mphClear
7:15 AM26.6 °F17.6 °F69 %30.10 in10.0 miSouth (170°)11.5 mphClear
7:35 AM26.6 °F17.6 °F69 %30.08 in10.0 miSouth (170°)15.0 mphClear
7:55 AM28.4 °F19.4 °F69 %30.06 in10.0 miSouth (180°)12.7 mphClear
8:15 AM28.4 °F19.4 °F69 %30.07 in10.0 miSouth (180°)11.5 mphClear
8:35 AM30.2 °F19.4 °F64 %30.08 in10.0 miSouth (170°)10.4 mphClear
9:15 AM35.6 °F21.2 °F56 %30.08 in10.0 miSouth (180°)16.1 mph21.9 mphClear
9:35 AM37.4 °F21.2 °F52 %30.08 in10.0 miSouth (190°)12.7 mph24.2 mphClear
9:55 AM39.2 °F21.2 °F49 %30.08 in10.0 miSouth (190°)13.8 mph24.2 mphClear
10:15 AM39.2 °F21.2 °F49 %30.09 in10.0 miSSW (200°)17.3 mph23.0 mphClear
10:35 AM39.2 °F21.2 °F49 %30.08 in10.0 miSSW (200°)13.8 mph20.7 mphClear
10:55 AM42.8 °F21.2 °F42 %30.08 in10.0 miSSW (210°)18.4 mph24.2 mphClear
11:35 AM44.6 °F21.2 °F39 %30.06 in10.0 miSouth (190°)18.4 mphClear
11:55 AM44.6 °F21.2 °F39 %30.04 in10.0 miSSW (200°)16.1 mph20.7 mphClear
12:35 PM46.4 °F21.2 °F37 %30.01 in10.0 miSSW (210°)19.6 mph25.3 mphClear
1:15 PM46.4 °F21.2 °F37 %30.00 in10.0 miSW (220°)15.0 mphClear
1:35 PM46.4 °F23.0 °F40 %30.00 in10.0 miSW (220°)18.4 mphClear
1:55 PM46.4 °F23.0 °F40 %30.00 in10.0 miSSW (210°)16.1 mphClear
2:15 PM46.4 °F23.0 °F40 %30.00 in10.0 miSSW (210°)13.8 mph19.6 mphClear
2:35 PM48.2 °F23.0 °F37 %30.00 in10.0 miSW (220°)17.3 mphClear
2:55 PM46.4 °F24.8 °F43 %30.00 in10.0 miSW (220°)10.4 mphClear
3:15 PM48.2 °F24.8 °F40 %30.00 in10.0 miSW (220°)15.0 mph18.4 mphClear
3:35 PM46.4 °F24.8 °F43 %30.00 in10.0 miSW (230°)11.5 mphClear
3:55 PM44.6 °F24.8 °F46 %30.00 in10.0 miWest (260°)4.6 mphClear
4:15 PM42.8 °F26.6 °F53 %30.01 in10.0 miWSW (250°)6.9 mphClear
4:35 PM42.8 °F26.6 °F53 %30.00 in10.0 miWest (260°)3.5 mphClear
4:55 PM41.0 °F24.8 °F53 %30.00 in10.0 miWSW (250°)5.8 mphClear
5:15 PM39.2 °F24.8 °F56 %30.00 in10.0 miCalmClear
5:35 PM35.6 °F24.8 °F65 %30.00 in10.0 miCalmClear
5:55 PM33.8 °F24.8 °F70 %29.99 in10.0 miCalmClear
6:15 PM33.8 °F24.8 °F70 %30.00 in10.0 miCalmClear
6:35 PM33.8 °F23.0 °F65 %30.00 in10.0 miCalmClear
6:55 PM30.2 °F24.8 °F80 %30.01 in10.0 miCalmClear
7:15 PM28.4 °F23.0 °F80 %30.02 in10.0 miCalmClear
7:35 PM26.6 °F21.2 °F80 %30.01 in10.0 miCalmClear
7:55 PM26.6 °F23.0 °F86 %30.01 in10.0 miCalmClear
8:15 PM26.6 °F23.0 °F86 %30.00 in10.0 miCalmClear
8:35 PM28.4 °F23.0 °F80 %30.00 in10.0 miCalmClear
8:55 PM26.6 °F23.0 °F86 %30.00 in10.0 miCalmClear
9:15 PM26.6 °F21.2 °F80 %30.00 in10.0 miCalmClear
9:35 PM26.6 °F23.0 °F86 %30.00 in10.0 miCalmClear
9:55 PM26.6 °F21.2 °F80 %30.00 in10.0 miCalmClear
10:15 PM24.8 °F21.2 °F86 %29.99 in10.0 miCalmClear
10:35 PM24.8 °F21.2 °F86 %29.99 in10.0 miCalmClear
10:55 PM23.0 °F19.4 °F86 %29.99 in10.0 miCalmClear
11:15 PM21.2 °F19.4 °F93 %29.98 in10.0 miCalmClear
11:35 PM23.0 °F19.4 °F86 %29.98 in10.0 miCalmClear
11:55 PM21.2 °F19.4 °F93 %29.98 in10.0 miCalmClear
Hourly data recorded from KICL, located miles away from Burlington Junction, Missouri







STORIES FROM OUR PARTNERS